Find Starlink 2704

NORAD ID: 48643 Int'l Des: 2021-044 Owner: SPXS Country: US Constellation: starlink operational
LEOCIRCULAR

实时位置

正在加载3D地球...

关于 Starlink 2704

正在加载描述...

即将过境

Passes for default location (London). Set your location on the main map for personalized predictions.

高度历史

Loading altitude history...

两行轨道根数

1 48643U 21044F 26125.52183745 .00000661 00000-0 33032-4 0 9995
2 48643 53.1582 209.6329 0001084 59.1090 301.0018 15.31715217272534
Epoch: May 5, 2026 • Age: 20 hours

当前状态

高度 477.5 km
速度 7.63 km/s
星下点 -21.82°S, 55.7°E
发射日期 May 26, 2021
运行时间 4.9 years
类型 internet

技术详情

分类 Payload
质量 260.00 kg
干质量 248.00 kg
总质量 260.00 kg
长度 0.20 m
直径 2.80 m
跨度 9.00 m
形状 Box + pan
制造商 SPXS
平台类型 Starlink
阶段状态 In Orbit
所有者/国家 SPXS/US

Most Searched